カタログに戻る

COSMOS 2251 DEB

運用中LEO
NORAD 34683·DEBRIS·🇷🇺 Russia

打ち上げ Jun 16, 1993 から Plesetsk Cosmodrome

Loading…

次のパス (今後24時間)

TLE

最新Source: Space-Track

元期: Sep 14, 2026, 01:20 UTC

1 34683U 93036YD  26257.05606925  .00003303  00000-0  59043-3 0  9993
2 34683  74.0258 281.5376 0020807 317.5150  72.0561 14.67183342923838

AllMySatでCOSMOS 2251 DEBをリアルタイム追跡

Download on the App Store